Location: Newark
(43.4545°N, 5.8521°W)
Time: 08:03:53
(UTC+00:00)

ISS - Pass Details

Date: 28 November 2019
Orbit: 411 x 421 km, 51.6° (Epoch: 16 December)

Event Time Altitude Azimuth Distance (km) Brightness Sun altitude
Rises 17:20:12 0° 251° (WSW) 2,346 2.7 -5.8°
Reaches altitude 10° 17:22:20 10° 257° (WSW) 1,488 0.7 -6.1°
Maximum altitude 17:25:34 48° 334° (NNW) 554 -3.1 -6.7°
Drops below altitude 10° 17:28:51 10° 50° (NE) 1,501 -1.6 -7.2°
Enters shadow 17:29:05 - 51° (NE) 1,595 -1.4 -7.3°
